Regional Weather Roundup
Issued by NWS

Home | Current Version | Previous Version | Text Only | Print | Product List | Glossary Off
Versions: 1 2 3 4 5 6 7 8 9 10 11 12 13 14 15 16 17 18 19 20 21 22 23 24 25 26 27 28 29 30 31 32 33 34 35 36 37 38 39 40 41 42 43 44 45 46 47 48 49 50

861
ASUS45 KCYS 281210
RWRWY

WYOMING REGIONAL WEATHER ROUNDUP
NATIONAL WEATHER SERVICE CHEYENNE WY
600 AM MDT SAT MAY 28 2016

NOTE:  "FAIR" INDICATES FEW OR NO CLOUDS BELOW 12,000 FEET
WITH NO SIGNIFICANT WEATHER AND/OR OBSTRUCTIONS TO VISIBILITY.

WYZ001-281300-
YELLOWSTONE NATIONAL PARK

CITY           SKY/WX    TMP DP  RH WIND       PRES   REMARKS
LK YELLOWSTONE   N/A     33  29  85 CALM      30.07R
6HR MIN TEMP:  31; 6HR MAX TEMP:  36;

W YELLOWSTONE  NOT AVBL

$$
WYZ002>013-054>058-071-098>099-281300-
NORTHERN WYOMING

CITY           SKY/WX    TMP DP  RH WIND       PRES   REMARKS
JACKSON        FAIR      36  30  80 SE3       30.04R
CODY           CLOUDY    43  43 100 CALM      29.98R
GREYBULL       MOCLDY    49  45  86 NW6       29.93S
6HR MIN TEMP:  49; 6HR MAX TEMP:  55;

WORLAND        MOCLDY    46  45  96 E3        29.94S
6HR MIN TEMP:  46; 6HR MAX TEMP:  53;

SHERIDAN       FAIR      48  43  82 NW12      29.94R
6HR MIN TEMP:  46; 6HR MAX TEMP:  51;

BUFFALO        FAIR      47  42  83 N10       29.95R
6HR MIN TEMP:  45; 6HR MAX TEMP:  51; 6HR PCP:  0.04;

GILLETTE       MOCLDY    45  44  97 S5        29.91R
6HR MIN TEMP:  41; 6HR MAX TEMP:  49;

HULETT         CLOUDY    48  45  87 S3        29.92R
NEWCASTLE      FAIR      43  39  87 N6        29.91S

$$
WYZ014>020-022>026-101>103-281300-
CENTRAL WYOMING

CITY           SKY/WX    TMP DP  RH WIND       PRES   REMARKS
BIG PINEY      FAIR      37  30  75 N3        30.07R
6HR MIN TEMP:  34; 6HR MAX TEMP:  42;

PINEDALE       FAIR      32  32 100 W7        30.08R WCI  26
DUBOIS         FAIR      34  28  80 NW5       30.03R WCI  30
LANDER         MOCLDY    40  33  76 CALM      29.96R
6HR MIN TEMP:  40; 6HR MAX TEMP:  50;

RIVERTON       FAIR      42  38  85 NW8       29.97R
6HR MIN TEMP:  42; 6HR MAX TEMP:  52;

CASPER         FAIR      36  33  89 CALM      29.97R
6HR MIN TEMP:  35; 6HR MAX TEMP:  45;

DOUGLAS          N/A    N/A N/A N/A MISG      29.97R

$$
WYZ021-027>030-104>119-281300-
SOUTHERN WYOMING

CITY           SKY/WX    TMP DP  RH WIND       PRES   REMARKS
EVANSTON       FAIR      39  33  79 SW12      30.07R WCI  32
6HR MIN TEMP:  39; 6HR MAX TEMP:  47;

KEMMERER         N/A     36  32  87 CALM      30.08R
FORT BRIDGER   SUNNY     43  36  75 SW9       30.10R
ROCK SPRINGS   FAIR      41  34  76 SW12      30.05R
6HR MIN TEMP:  40; 6HR MAX TEMP:  45;

DIXON          FAIR      35  33  92 NE3       30.10R
RAWLINS        FAIR      43  35  73 SW15      30.04R
6HR MIN TEMP:  43; 6HR MAX TEMP:  47;

SARATOGA       FAIR      36  36 100 SE5       30.06S WCI  32
LARAMIE        FAIR      36  32  85 S8        30.03R WCI  30
6HR MIN TEMP:  33; 6HR MAX TEMP:  37;

CHEYENNE       MOCLDY    45  37  73 W6        29.99R
6HR MIN TEMP:  41; 6HR MAX TEMP:  47;

TORRINGTON     FOG       40  39  97 W5        29.93R VSB<1/4
6HR MIN TEMP:  39; 6HR MAX TEMP:  47;

PINE BLUFFS    FAIR      36  36 100 CALM      29.97R

$$




USA.gov is the U.S. government's official web portal to all federal, state and local government web resources and services.